Hourly Weather Bruntal

Today, 15 May, Saturday

Time Temperature Precipitation Wind Pressure Humidity
00:00 +7°C° 0 mm 1 mps 708 mmHg 94%
01:00 +7°C° 0 mm 1 mps 708 mmHg 94%
02:00 +6°C° 0 mm 1 mps 708 mmHg 94%
03:00 +6°C° 0 mm 1 mps 708 mmHg 93%
04:00 +6°C° 0 mm 1 mps 708 mmHg 93%
05:00 +8°C° 0 mm 1 mps 709 mmHg 90%
06:00 +9°C° 0 mm 2 mps 709 mmHg 86%
07:00 +10°C° 0 mm 2 mps 709 mmHg 82%
08:00 +13°C° 0 mm 2 mps 709 mmHg 76%
09:00 +14°C° 0 mm 2 mps 709 mmHg 69%
10:00 +15°C° 0 mm 2 mps 709 mmHg 63%
11:00 +16°C° 0.1 mm 3 mps 709 mmHg 62%
12:00 +16°C° 0.1 mm 3 mps 709 mmHg 62%
13:00 +16°C° 0.1 mm 3 mps 708 mmHg 61%
14:00 +16°C° 0.3 mm 3 mps 708 mmHg 66%
15:00 +14°C° 0.3 mm 3 mps 708 mmHg 71%
16:00 +14°C° 0.3 mm 3 mps 708 mmHg 76%
17:00 +14°C° 0.6 mm 2 mps 708 mmHg 80%
18:00 +12°C° 0.6 mm 2 mps 707 mmHg 85%
19:00 +10°C° 0.6 mm 2 mps 707 mmHg 90%
20:00 +10°C° 0.9 mm 2 mps 707 mmHg 92%
21:00 +11°C° 0.9 mm 1 mps 707 mmHg 95%
22:00 +10°C° 0.9 mm 1 mps 707 mmHg 97%
23:00 +10°C° 1.1 mm 1 mps 707 mmHg 97%

Tomorrow, 16 May, Sunday

Time Temperature Precipitation Wind Pressure Humidity
00:00 +10°C° 1.1 mm 1 mps 707 mmHg 97%
01:00 +9°C° 1.1 mm 1 mps 707 mmHg 97%
02:00 +9°C° 0.3 mm 1 mps 707 mmHg 97%
03:00 +9°C° 0.3 mm 1 mps 706 mmHg 96%
04:00 +9°C° 0.3 mm 1 mps 706 mmHg 96%
05:00 +10°C° 0 mm 1 mps 707 mmHg 93%
06:00 +11°C° 0 mm 1 mps 707 mmHg 90%
07:00 +11°C° 0 mm 1 mps 707 mmHg 87%
08:00 +12°C° 0.2 mm 2 mps 707 mmHg 84%
09:00 +12°C° 0.2 mm 2 mps 707 mmHg 81%
10:00 +12°C° 0.2 mm 2 mps 707 mmHg 78%
11:00 +12°C° 0.2 mm 2 mps 707 mmHg 77%
12:00 +12°C° 0.2 mm 2 mps 707 mmHg 76%
13:00 +12°C° 0.2 mm 2 mps 707 mmHg 75%
14:00 +13°C° 0.1 mm 2 mps 707 mmHg 73%
15:00 +13°C° 0.1 mm 2 mps 706 mmHg 71%
16:00 +14°C° 0.1 mm 2 mps 706 mmHg 69%
17:00 +13°C° 0.1 mm 2 mps 706 mmHg 74%
18:00 +12°C° 0.1 mm 2 mps 706 mmHg 79%
19:00 +10°C° 0.1 mm 2 mps 706 mmHg 84%
20:00 +9°C° 0 mm 2 mps 706 mmHg 87%
21:00 +8°C° 0 mm 2 mps 706 mmHg 89%
22:00 +7°C° 0 mm 2 mps 707 mmHg 91%
23:00 +7°C° 0.2 mm 2 mps 706 mmHg 92%

Day after tomorrow, 17 May, Monday

Time Temperature Precipitation Wind Pressure Humidity
00:00 +8°C° 0.2 mm 2 mps 706 mmHg 92%
01:00 +8°C° 0.2 mm 2 mps 706 mmHg 92%
02:00 +8°C° 0.1 mm 2 mps 706 mmHg 93%
03:00 +8°C° 0.1 mm 2 mps 706 mmHg 94%
04:00 +8°C° 0.1 mm 2 mps 706 mmHg 95%
05:00 +8°C° 0.3 mm 2 mps 707 mmHg 95%
06:00 +8°C° 0.3 mm 2 mps 707 mmHg 95%
07:00 +9°C° 0.3 mm 2 mps 707 mmHg 95%
08:00 +9°C° 0.2 mm 2 mps 707 mmHg 90%
09:00 +10°C° 0.2 mm 2 mps 707 mmHg 85%
10:00 +12°C° 0.2 mm 2 mps 707 mmHg 80%
11:00 +12°C° 0.2 mm 3 mps 707 mmHg 77%
12:00 +12°C° 0.2 mm 3 mps 707 mmHg 73%
13:00 +13°C° 0.2 mm 4 mps 707 mmHg 70%
14:00 +13°C° 0.3 mm 4 mps 707 mmHg 71%
15:00 +13°C° 0.3 mm 4 mps 707 mmHg 72%
16:00 +12°C° 0.3 mm 5 mps 707 mmHg 72%
17:00 +11°C° 0.1 mm 4 mps 707 mmHg 77%
18:00 +10°C° 0.1 mm 4 mps 707 mmHg 82%
19:00 +9°C° 0.1 mm 3 mps 707 mmHg 86%
20:00 +8°C° 0 mm 3 mps 708 mmHg 88%
21:00 +7°C° 0 mm 3 mps 708 mmHg 90%
22:00 +6°C° 0 mm 2 mps 708 mmHg 92%
23:00 +6°C° 0 mm 2 mps 708 mmHg 92%

18 May, Tuesday

Time Temperature Precipitation Wind Pressure Humidity
00:00 +5°C° 0 mm 2 mps 708 mmHg 92%
01:00 +5°C° 0 mm 2 mps 708 mmHg 92%
02:00 +5°C° 0 mm 2 mps 708 mmHg 92%
03:00 +5°C° 0 mm 2 mps 708 mmHg 93%
04:00 +4°C° 0 mm 2 mps 708 mmHg 93%
05:00 +5°C° 0 mm 3 mps 709 mmHg 89%
06:00 +7°C° 0 mm 3 mps 709 mmHg 85%
07:00 +8°C° 0 mm 3 mps 709 mmHg 80%
08:00 +8°C° 0 mm 3 mps 709 mmHg 78%
09:00 +8°C° 0 mm 4 mps 710 mmHg 76%
10:00 +8°C° 0 mm 4 mps 710 mmHg 74%
11:00 +10°C° 0.1 mm 4 mps 710 mmHg 73%
12:00 +11°C° 0.1 mm 4 mps 710 mmHg 72%
13:00 +11°C° 0.1 mm 4 mps 710 mmHg 71%
14:00 +11°C° 0.1 mm 4 mps 710 mmHg 71%
15:00 +11°C° 0.1 mm 4 mps 710 mmHg 71%
16:00 +11°C° 0.1 mm 4 mps 710 mmHg 72%
17:00 +10°C° 0.1 mm 4 mps 710 mmHg 77%
18:00 +9°C° 0.1 mm 3 mps 710 mmHg 81%
19:00 +8°C° 0.1 mm 3 mps 711 mmHg 86%
20:00 +8°C° 0 mm 3 mps 711 mmHg 88%
21:00 +7°C° 0 mm 3 mps 711 mmHg 90%
22:00 +6°C° 0 mm 2 mps 711 mmHg 92%
23:00 +5°C° 0 mm 3 mps 712 mmHg 92%

19 May, Wednesday

Time Temperature Precipitation Wind Pressure Humidity
00:00 +5°C° 0 mm 3 mps 712 mmHg 91%
01:00 +5°C° 0 mm 3 mps 712 mmHg 91%
02:00 +6°C° 0 mm 2 mps 712 mmHg 91%
03:00 +6°C° 0 mm 2 mps 712 mmHg 91%
04:00 +6°C° 0 mm 2 mps 712 mmHg 91%
05:00 +7°C° 0 mm 2 mps 712 mmHg 89%
06:00 +7°C° 0 mm 2 mps 712 mmHg 88%
07:00 +8°C° 0 mm 2 mps 713 mmHg 86%
08:00 +8°C° 0.2 mm 3 mps 713 mmHg 85%
09:00 +8°C° 0.2 mm 3 mps 713 mmHg 84%
10:00 +7°C° 0.2 mm 4 mps 713 mmHg 83%
11:00 +9°C° 0.2 mm 3 mps 713 mmHg 82%
12:00 +9°C° 0.2 mm 3 mps 713 mmHg 81%
13:00 +9°C° 0.2 mm 3 mps 713 mmHg 81%
14:00 +9°C° 0.2 mm 3 mps 713 mmHg 78%
15:00 +10°C° 0.2 mm 2 mps 713 mmHg 75%
16:00 +10°C° 0.2 mm 2 mps 713 mmHg 72%
17:00 +9°C° 0.3 mm 2 mps 713 mmHg 77%
18:00 +9°C° 0.3 mm 1 mps 713 mmHg 82%
19:00 +8°C° 0.3 mm 1 mps 714 mmHg 87%
20:00 +7°C° 0 mm 1 mps 714 mmHg 89%
21:00 +7°C° 0 mm 1 mps 714 mmHg 90%
22:00 +5°C° 0 mm 2 mps 714 mmHg 92%
23:00 +5°C° 0 mm 2 mps 714 mmHg 92%

20 May, Thursday

Time Temperature Precipitation Wind Pressure Humidity
00:00 +5°C° 0 mm 2 mps 714 mmHg 93%
01:00 +4°C° 0 mm 2 mps 714 mmHg 93%
02:00 +4°C° 0 mm 2 mps 715 mmHg 93%
03:00 +4°C° 0 mm 2 mps 715 mmHg 94%
04:00 +4°C° 0 mm 2 mps 715 mmHg 94%
05:00 +5°C° 0 mm 2 mps 715 mmHg 90%
06:00 +7°C° 0 mm 3 mps 715 mmHg 87%
07:00 +8°C° 0 mm 3 mps 715 mmHg 83%
08:00 +9°C° 0.1 mm 3 mps 715 mmHg 78%
09:00 +10°C° 0.1 mm 3 mps 715 mmHg 72%
10:00 +10°C° 0.1 mm 3 mps 715 mmHg 67%
11:00 +11°C° 0.2 mm 4 mps 715 mmHg 66%
12:00 +11°C° 0.2 mm 4 mps 715 mmHg 65%
13:00 +12°C° 0.2 mm 4 mps 715 mmHg 65%
14:00 +12°C° 0.1 mm 4 mps 715 mmHg 64%
15:00 +12°C° 0.1 mm 4 mps 714 mmHg 64%
16:00 +12°C° 0.1 mm 4 mps 714 mmHg 63%
17:00 +11°C° 0 mm 3 mps 714 mmHg 69%
18:00 +10°C° 0 mm 3 mps 713 mmHg 74%
19:00 +9°C° 0 mm 2 mps 713 mmHg 80%
20:00 +8°C° 0 mm 2 mps 713 mmHg 82%
21:00 +7°C° 0 mm 2 mps 713 mmHg 85%
22:00 +7°C° 0 mm 2 mps 713 mmHg 88%
23:00 +7°C° 0.1 mm 3 mps 712 mmHg 88%
Show more

We Need Your Consent

Meteoprog and our Service Providers may store and access personal data such as cookies, device identifiers or other similar technologies on your device and process such data to personalise content and ads, as well as provide social media features and to analyse the traffic.

  • Store and/or access information on your device

    Cookies, device identifiers or other information can be stored or accessed on your device for the purposes indicated above.

  • Personalised ads and content, ad and content measurement, audience insights, and products development

    Ads and content can be personalised based on a profile. More data can be added to better personalise ads and content. Ad and content performance can be measured. Insights about the audience who saw the ads and content can be derived. Such data can be used to develop or improve user’s experience, systems and software.

By clicking ‘I Agree’ you will allow the use of indicated cookies, device identifiers, web beacons or other similar technologies. Your settings can be changed in the browser on your device.

For certain purposes, legitimate interests may be relied on, rather than consent. You can read more about this in our Privacy and Cookie Policy.